Time,TemperatureF,DewpointF,PressureIn,WindDirection,WindDirectionDegrees,WindSpeedMPH,WindSpeedGustMPH,Humidity,HourlyPrecipIn,Conditions,Clouds,dailyrainin,SolarRadiationWatts/m^2,SoftwareType,DateUTC
2013-04-26 00:03:00,44.0,21.0,-100.00,NNW,341,1.0,4.0,40,0.00,,,0.00,0.000000,,2013-04-26 04:03:00,
2013-04-26 00:12:00,44.0,21.0,-100.00,NNW,341,1.0,4.0,40,0.00,,,0.00,0.000000,,2013-04-26 04:12:00,
2013-04-26 00:43:00,44.0,23.0,-100.00,NW,313,0.0,1.0,44,0.00,,,0.00,0.000000,,2013-04-26 04:43:00,
2013-04-26 00:53:00,44.0,23.0,-100.00,NW,313,0.0,1.0,44,0.00,,,0.00,0.000000,,2013-04-26 04:53:00,
2013-04-26 01:02:00,44.0,23.0,-100.00,NW,313,0.0,1.0,44,0.00,,,0.00,0.000000,,2013-04-26 05:02:00,
2013-04-26 01:13:00,44.0,23.0,-100.00,NW,313,0.0,1.0,44,0.00,,,0.00,0.000000,,2013-04-26 05:13:00,
2013-04-26 01:42:00,43.0,24.0,-100.00,North,7,0.0,0.0,47,0.00,,,0.00,0.000000,,2013-04-26 05:42:00,
2013-04-26 01:52:00,43.0,24.0,-100.00,North,7,0.0,0.0,47,0.00,,,0.00,0.000000,,2013-04-26 05:52:00,
2013-04-26 02:02:00,43.0,24.0,-100.00,North,7,0.0,0.0,47,0.00,,,0.00,0.000000,,2013-04-26 06:02:00,
2013-04-26 02:12:00,43.0,24.0,-100.00,North,7,0.0,0.0,47,0.00,,,0.00,0.000000,,2013-04-26 06:12:00,
2013-04-26 02:42:00,40.0,23.0,-100.00,NW,308,0.0,0.0,51,0.00,,,0.00,0.000000,,2013-04-26 06:42:00,
2013-04-26 02:52:00,40.0,23.0,-100.00,NW,308,0.0,0.0,51,0.00,,,0.00,0.000000,,2013-04-26 06:52:00,
2013-04-26 03:02:00,40.0,23.0,-100.00,NW,308,0.0,0.0,51,0.00,,,0.00,0.000000,,2013-04-26 07:02:00,
2013-04-26 03:11:00,40.0,23.0,-100.00,NW,308,0.0,0.0,51,0.00,,,0.00,0.000000,,2013-04-26 07:11:00,
2013-04-26 03:42:00,41.0,24.0,-100.00,SSE,165,0.0,0.0,51,0.00,,,0.00,0.000000,,2013-04-26 07:42:00,
2013-04-26 03:52:00,41.0,24.0,-100.00,SSE,165,0.0,0.0,51,0.00,,,0.00,0.000000,,2013-04-26 07:52:00,
2013-04-26 04:03:00,41.0,24.0,-100.00,SSE,165,0.0,0.0,51,0.00,,,0.00,0.000000,,2013-04-26 08:03:00,
2013-04-26 04:11:00,41.0,24.0,-100.00,SSE,165,0.0,0.0,51,0.00,,,0.00,0.000000,,2013-04-26 08:11:00,
2013-04-26 04:42:00,40.0,24.0,-100.00,WSW,248,0.0,0.0,53,0.00,,,0.00,0.000000,,2013-04-26 08:42:00,
2013-04-26 04:52:00,40.0,24.0,-100.00,WSW,248,0.0,0.0,53,0.00,,,0.00,0.000000,,2013-04-26 08:52:00,
2013-04-26 05:02:00,40.0,24.0,-100.00,WSW,248,0.0,0.0,53,0.00,,,0.00,0.000000,,2013-04-26 09:02:00,
2013-04-26 05:12:00,40.0,24.0,-100.00,WSW,248,0.0,0.0,53,0.00,,,0.00,0.000000,,2013-04-26 09:12:00,
2013-04-26 05:43:00,38.0,27.0,-100.00,West,271,0.0,0.0,64,0.00,,,0.00,0.000000,,2013-04-26 09:43:00,
2013-04-26 05:53:00,38.0,27.0,-100.00,West,271,0.0,0.0,64,0.00,,,0.00,0.000000,,2013-04-26 09:53:00,
2013-04-26 06:03:00,38.0,27.0,-100.00,West,271,0.0,0.0,64,0.00,,,0.00,0.000000,,2013-04-26 10:03:00,
2013-04-26 06:12:00,38.0,27.0,-100.00,West,271,0.0,0.0,64,0.00,,,0.00,0.000000,,2013-04-26 10:12:00,
2013-04-26 06:42:00,39.0,27.0,-100.00,North,8,0.0,0.0,61,0.00,,,0.00,0.000000,,2013-04-26 10:42:00,
2013-04-26 06:52:00,39.0,27.0,-100.00,North,8,0.0,0.0,61,0.00,,,0.00,0.000000,,2013-04-26 10:52:00,
2013-04-26 07:02:00,39.0,27.0,-100.00,North,8,0.0,0.0,61,0.00,,,0.00,0.000000,,2013-04-26 11:02:00,
2013-04-26 07:11:00,39.0,27.0,-100.00,North,8,0.0,0.0,61,0.00,,,0.00,0.000000,,2013-04-26 11:11:00,
2013-04-26 07:42:00,38.0,26.0,-100.00,NE,42,0.0,0.0,61,0.00,,,0.00,10.000000,,2013-04-26 11:42:00,
2013-04-26 07:52:00,38.0,26.0,-100.00,NE,42,0.0,0.0,61,0.00,,,0.00,10.000000,,2013-04-26 11:52:00,
2013-04-26 08:02:00,38.0,26.0,-100.00,NE,42,0.0,0.0,61,0.00,,,0.00,10.000000,,2013-04-26 12:02:00,
2013-04-26 08:11:00,38.0,26.0,-100.00,NE,42,0.0,0.0,61,0.00,,,0.00,10.000000,,2013-04-26 12:11:00,
2013-04-26 08:42:00,41.0,31.0,-100.00,SSE,149,0.0,0.0,67,0.00,,,0.00,84.000000,,2013-04-26 12:42:00,
2013-04-26 08:52:00,41.0,31.0,-100.00,SSE,149,0.0,0.0,67,0.00,,,0.00,84.000000,,2013-04-26 12:52:00,
2013-04-26 09:01:00,41.0,31.0,-100.00,SSE,149,0.0,0.0,67,0.00,,,0.00,84.000000,,2013-04-26 13:01:00,
2013-04-26 09:11:00,41.0,31.0,-100.00,SSE,149,0.0,0.0,67,0.00,,,0.00,84.000000,,2013-04-26 13:11:00,
2013-04-26 09:42:00,49.0,32.0,-100.00,East,94,0.0,0.0,52,0.00,,,0.00,323.000000,,2013-04-26 13:42:00,
2013-04-26 09:52:00,49.0,32.0,-100.00,East,94,0.0,0.0,52,0.00,,,0.00,323.000000,,2013-04-26 13:52:00,
2013-04-26 10:02:00,49.0,32.0,-100.00,East,94,0.0,0.0,52,0.00,,,0.00,323.000000,,2013-04-26 14:02:00,
2013-04-26 10:11:00,49.0,32.0,-100.00,East,94,0.0,0.0,52,0.00,,,0.00,323.000000,,2013-04-26 14:11:00,
2013-04-26 10:42:00,52.0,32.0,-100.00,SSE,160,0.0,0.0,47,0.00,,,0.00,507.000000,,2013-04-26 14:42:00,
2013-04-26 10:52:00,52.0,32.0,-100.00,SSE,160,0.0,0.0,47,0.00,,,0.00,507.000000,,2013-04-26 14:52:00,
2013-04-26 11:01:00,52.0,32.0,-100.00,SSE,160,0.0,0.0,47,0.00,,,0.00,507.000000,,2013-04-26 15:01:00,
2013-04-26 11:12:00,52.0,32.0,-100.00,SSE,160,0.0,0.0,47,0.00,,,0.00,507.000000,,2013-04-26 15:12:00,
2013-04-26 11:43:00,54.0,32.0,-100.00,West,266,0.0,0.0,43,0.00,,,0.00,641.000000,,2013-04-26 15:43:00,
2013-04-26 11:53:00,54.0,32.0,-100.00,West,266,0.0,0.0,43,0.00,,,0.00,641.000000,,2013-04-26 15:53:00,
2013-04-26 12:03:00,54.0,32.0,-100.00,West,266,0.0,0.0,43,0.00,,,0.00,641.000000,,2013-04-26 16:03:00,
2013-04-26 12:13:00,54.0,32.0,-100.00,West,266,0.0,0.0,43,0.00,,,0.00,641.000000,,2013-04-26 16:13:00,
2013-04-26 12:42:00,58.0,33.0,-100.00,SW,217,0.0,0.0,39,0.00,,,0.00,783.000000,,2013-04-26 16:42:00,
2013-04-26 12:53:00,58.0,33.0,-100.00,SW,217,0.0,0.0,39,0.00,,,0.00,783.000000,,2013-04-26 16:53:00,
2013-04-26 13:02:00,58.0,33.0,-100.00,SW,217,0.0,0.0,39,0.00,,,0.00,783.000000,,2013-04-26 17:02:00,
2013-04-26 13:12:00,58.0,33.0,-100.00,SW,217,0.0,0.0,39,0.00,,,0.00,783.000000,,2013-04-26 17:12:00,
2013-04-26 13:42:00,59.0,30.0,-100.00,NNW,336,0.0,0.0,33,0.00,,,0.00,838.000000,,2013-04-26 17:42:00,
2013-04-26 13:52:00,59.0,30.0,-100.00,NNW,336,0.0,0.0,33,0.00,,,0.00,838.000000,,2013-04-26 17:52:00,
2013-04-26 14:02:00,59.0,30.0,-100.00,NNW,336,0.0,0.0,33,0.00,,,0.00,838.000000,,2013-04-26 18:02:00,
2013-04-26 14:12:00,59.0,30.0,-100.00,NNW,336,0.0,0.0,33,0.00,,,0.00,838.000000,,2013-04-26 18:12:00,
2013-04-26 14:42:00,62.0,29.0,-100.00,SSE,157,0.0,0.0,29,0.00,,,0.00,805.000000,,2013-04-26 18:42:00,
2013-04-26 14:52:00,62.0,29.0,-100.00,SSE,157,0.0,0.0,29,0.00,,,0.00,805.000000,,2013-04-26 18:52:00,
2013-04-26 15:02:00,62.0,29.0,-100.00,SSE,157,0.0,0.0,29,0.00,,,0.00,805.000000,,2013-04-26 19:02:00,
2013-04-26 15:12:00,62.0,29.0,-100.00,SSE,157,0.0,0.0,29,0.00,,,0.00,805.000000,,2013-04-26 19:12:00,
2013-04-26 15:42:00,65.0,32.0,-100.00,ESE,113,0.0,0.0,29,0.00,,,0.00,727.000000,,2013-04-26 19:42:00,
2013-04-26 15:52:00,65.0,32.0,-100.00,ESE,113,0.0,0.0,29,0.00,,,0.00,727.000000,,2013-04-26 19:52:00,
2013-04-26 16:02:00,65.0,32.0,-100.00,ESE,113,0.0,0.0,29,0.00,,,0.00,727.000000,,2013-04-26 20:02:00,
2013-04-26 16:11:00,65.0,32.0,-100.00,ESE,113,0.0,0.0,29,0.00,,,0.00,727.000000,,2013-04-26 20:11:00,
2013-04-26 16:42:00,64.0,27.0,-100.00,WSW,250,0.0,0.0,25,0.00,,,0.00,487.000000,,2013-04-26 20:42:00,
2013-04-26 16:52:00,64.0,27.0,-100.00,WSW,250,0.0,0.0,25,0.00,,,0.00,487.000000,,2013-04-26 20:52:00,
2013-04-26 17:02:00,64.0,27.0,-100.00,WSW,250,0.0,0.0,25,0.00,,,0.00,487.000000,,2013-04-26 21:02:00,
2013-04-26 17:11:00,64.0,27.0,-100.00,WSW,250,0.0,0.0,25,0.00,,,0.00,487.000000,,2013-04-26 21:11:00,
2013-04-26 17:42:00,63.0,24.0,-100.00,WNW,287,0.0,0.0,22,0.00,,,0.00,343.000000,,2013-04-26 21:42:00,
2013-04-26 17:53:00,63.0,24.0,-100.00,WNW,287,0.0,0.0,22,0.00,,,0.00,343.000000,,2013-04-26 21:53:00,
2013-04-26 18:03:00,63.0,24.0,-100.00,WNW,287,0.0,0.0,22,0.00,,,0.00,343.000000,,2013-04-26 22:03:00,
2013-04-26 18:13:00,63.0,24.0,-100.00,WNW,287,0.0,0.0,22,0.00,,,0.00,343.000000,,2013-04-26 22:13:00,
2013-04-26 18:42:00,62.0,22.0,-100.00,West,275,0.0,0.0,21,0.00,,,0.00,178.000000,,2013-04-26 22:42:00,
2013-04-26 18:52:00,62.0,22.0,-100.00,West,275,0.0,0.0,21,0.00,,,0.00,178.000000,,2013-04-26 22:52:00,
2013-04-26 19:02:00,62.0,22.0,-100.00,West,275,0.0,0.0,21,0.00,,,0.00,178.000000,,2013-04-26 23:02:00,
2013-04-26 19:12:00,62.0,22.0,-100.00,West,275,0.0,0.0,21,0.00,,,0.00,178.000000,,2013-04-26 23:12:00,
2013-04-26 19:42:00,60.0,22.0,-100.00,North,352,0.0,0.0,23,0.00,,,0.00,86.000000,,2013-04-26 23:42:00,
2013-04-26 19:52:00,60.0,22.0,-100.00,North,352,0.0,0.0,23,0.00,,,0.00,86.000000,,2013-04-26 23:52:00,
2013-04-26 20:01:00,60.0,22.0,-100.00,North,352,0.0,0.0,23,0.00,,,0.00,86.000000,,2013-04-27 00:01:00,
2013-04-26 20:11:00,60.0,22.0,-100.00,North,352,0.0,0.0,23,0.00,,,0.00,86.000000,,2013-04-27 00:11:00,
2013-04-26 20:42:00,56.0,20.0,-100.00,NNW,346,0.0,0.0,24,0.00,,,0.00,23.000000,,2013-04-27 00:42:00,
2013-04-26 20:52:00,56.0,20.0,-100.00,NNW,346,0.0,0.0,24,0.00,,,0.00,23.000000,,2013-04-27 00:52:00,
2013-04-26 21:01:00,56.0,20.0,-100.00,NNW,346,0.0,0.0,24,0.00,,,0.00,23.000000,,2013-04-27 01:01:00,
2013-04-26 21:12:00,56.0,20.0,-100.00,NNW,346,0.0,0.0,24,0.00,,,0.00,23.000000,,2013-04-27 01:12:00,
2013-04-26 21:42:00,54.0,26.0,-100.00,NNW,347,0.0,0.0,34,0.00,,,0.00,0.000000,,2013-04-27 01:42:00,
2013-04-26 21:52:00,54.0,26.0,-100.00,NNW,347,0.0,0.0,34,0.00,,,0.00,0.000000,,2013-04-27 01:52:00,
2013-04-26 22:02:00,54.0,26.0,-100.00,NNW,347,0.0,0.0,34,0.00,,,0.00,0.000000,,2013-04-27 02:02:00,
2013-04-26 22:11:00,54.0,26.0,-100.00,NNW,347,0.0,0.0,34,0.00,,,0.00,0.000000,,2013-04-27 02:11:00,
2013-04-26 22:42:00,52.0,28.0,-100.00,NNW,347,0.0,0.0,39,0.00,,,0.00,0.000000,,2013-04-27 02:42:00,
2013-04-26 22:52:00,52.0,28.0,-100.00,NNW,347,0.0,0.0,39,0.00,,,0.00,0.000000,,2013-04-27 02:52:00,
2013-04-26 23:02:00,52.0,28.0,-100.00,NNW,347,0.0,0.0,39,0.00,,,0.00,0.000000,,2013-04-27 03:02:00,
2013-04-26 23:11:00,52.0,28.0,-100.00,NNW,347,0.0,0.0,39,0.00,,,0.00,0.000000,,2013-04-27 03:11:00,
2013-04-26 23:43:00,51.0,27.0,-100.00,NNE,18,0.0,0.0,39,0.00,,,0.00,0.000000,,2013-04-27 03:43:00,
2013-04-26 23:53:00,51.0,27.0,-100.00,NNE,18,0.0,0.0,39,0.00,,,0.00,0.000000,,2013-04-27 03:53:00,